Flag for U.S.A. Weather past 2 weeks in Santa Cruz, California, U.S.A.

Now
63 °F

Fog.


Feels Like: 63 °F
Forecast: 63 / 75 °F
Wind: No wind

Location: Watsonville Municipal Airport

Current Time: Aug 29, 2015 at 6:24:16 AM

Latest Report: Aug 29, 2015 at 5:53 AM


Visibility: 1 mi

Pressure: 29.96 "Hg

Humidity: 90%

Dew point: 60 °F

Location of Santa CruzLocation

Historic Weather in Santa Cruz — Graph

°F

Santa Cruz temperature yesterday

Maximum temperature yesterday: 92 °F (at 12:53 PM)
Minimum temperature yesterday: 61 °F (at 6:53 AM)
Average temperature yesterday: 72 °F

Past Weeks' High & Low Weather Summary

 TemperatureHumidityPressure
High100 °F (Aug 15, 2:53 PM)93% (Aug 17, 3:53 AM)30.08 "Hg (Aug 17, 3:53 AM)
Low56 °F (Aug 14, 4:53 AM)16% (Aug 15, 4:53 PM)29.84 "Hg (Aug 16, 3:53 PM)
Average68 °F69%29.95 "Hg
* Reported Aug 14 4:53 AM — Aug 29 4:53 AM, Santa Cruz, Weather by CustomWeather, © 2015

Note: Actual official high and low records may vary slightly from our data, if they occured in-between our weather recording intervals... More about our weather records

Advertising

Santa Cruz weather history for previous 24 hours

 ConditionsComfort  
Time TempWeatherWind HumidityBarometerVisibility
4:53 AM
Sat, Aug 29
63 °FLow clouds.No wind93%29.96 "Hg9 mi
3:53 AM63 °FFog.3 mph90%29.96 "Hg2 mi
2:53 AM63 °FLow clouds.5 mph90%29.94 "Hg10 mi
1:53 AM64 °FLow clouds.3 mph90%29.94 "Hg10 mi
12:53 AM64 °FLow clouds.5 mph87%29.93 "Hg10 mi
11:53 PM
Fri, Aug 28
64 °FFog.3 mph87%29.94 "Hg6 mi
10:53 PM64 °FLow clouds.6 mph90%29.93 "Hg9 mi
9:53 PM64 °FLow clouds.No wind87%29.93 "Hg10 mi
8:53 PM64 °FLow clouds.No wind87%29.92 "Hg9 mi
8:02 PM64 °FLow clouds.3 mph87%29.92 "Hg10 mi
7:53 PM63 °FLow clouds.3 mph87%29.91 "Hg9 mi
6:53 PM65 °FLow clouds.9 mph81%29.90 "Hg10 mi
5:53 PM70 °FSunny.13 mph71%29.89 "Hg10 mi
4:53 PM78 °FSunny.13 mph52%29.87 "Hg10 mi
3:53 PM83 °FSunny.13 mph41%29.87 "Hg10 mi
2:53 PM90 °FSunny.12 mph28%29.88 "Hg10 mi
1:53 PM92 °FSunny.10 mph25%29.88 "Hg10 mi
12:53 PM92 °FSunny.10 mph25%29.89 "Hg10 mi
11:53 AM91 °FSunny.6 mph28%29.90 "Hg10 mi
10:53 AM86 °FSunny.3 mph37%29.91 "Hg10 mi
9:53 AM80 °FSunny.3 mph39%29.92 "Hg10 mi
8:53 AM77 °FSunny.3 mph42%29.92 "Hg10 mi
7:53 AM70 °FSunny.No wind53%29.91 "Hg10 mi
6:53 AM61 °FClear.No wind70%29.91 "Hg10 mi
Weather by CustomWeather, © 2015

See weather overviewHow to use our weather pages